Location: Dover
(48.8500°N, 53.9833°W)
Time: 07:55:15
(UTC+00:00)

CZ-2D R/B - Pass Details

Date: 14 November 2025
Orbit: 403 x 411 km, 97.4° (Epoch: 12 December)

Event Time Altitude Azimuth Distance (km) Brightness Sun altitude
Rises 21:01:51 0° 165° (SSE) 2,337 6.6 -10.8°
Reaches altitude 10° 21:03:50 10° 165° (SSE) 1,477 5.5 -11.1°
Maximum altitude 21:06:59 88° 82° (E) 416 2.6 -11.6°
Drops below altitude 10° 21:10:09 10° 347° (NNW) 1,482 5.5 -12.1°
Sets 21:12:08 0° 348° (NNW) 2,346 6.5 -12.5°
